N0JVW-13 Weather Reports


time (UTC)temp
F
wind
direction
speed
knots
gust
knots
rain 1hr
in
rain 24hr
in
rain mn
in
humidity
%
barometer
mb
20260906133521 80 150 0.0 0.0 0.00 0.00 0.00 63 1013.2
20260906133109 79 153 0.0 0.0 0.00 0.00 0.00 62 1013.1
20260906132543 79 153 0.0 0.0 0.00 0.00 0.00 62 1013.0
20260906132021 79 153 0.0 0.0 0.00 0.00 0.00 62 1013.0
20260906131501 79 153 0.0 0.0 0.00 0.00 0.00 62 1013.0
20260906131044 79 153 0.0 0.0 0.00 0.00 0.00 62 1013.0
20260906130524 78 153 0.0 0.0 0.00 0.00 0.00 63 1012.9
20260906130004 78 153 0.0 0.0 0.00 0.00 0.00 64 1012.9
20260906125548 78 153 0.0 0.0 0.00 0.00 0.00 64 1012.8
20260906125029 78 153 0.0 0.0 0.00 0.00 0.00 64 1012.8
20260906124506 78 153 0.0 0.0 0.00 0.00 0.00 64 1012.8
20260906124050 77 153 0.0 0.0 0.00 0.00 0.00 62 1012.8
20260906123531 77 153 0.0 0.0 0.00 0.00 0.00 62 1012.6
20260906123017 77 153 0.0 0.0 0.00 0.00 0.00 62 1012.5
20260906122553 77 153 0.0 0.0 0.00 0.00 0.00 62 1012.5
20260906122033 77 153 0.0 0.0 0.00 0.00 0.00 62 1012.4
20260906121514 77 153 0.0 0.0 0.00 0.00 0.00 62 1012.4
20260906121055 77 153 0.0 0.0 0.00 0.00 0.00 61 1012.5
20260906120537 77 153 0.0 0.0 0.00 0.00 0.00 62 1012.3
20260906120015 77 153 0.0 0.0 0.00 0.00 0.00 61 1012.3
20260906115559 77 153 0.0 0.0 0.00 0.00 0.00 62 1012.2
20260906115039 77 153 0.0 0.0 0.00 0.00 0.00 61 1012.2
20260906114522 77 153 0.0 0.0 0.00 0.00 0.00 58 1012.1
20260906114104 76 153 0.0 0.9 0.00 0.00 0.00 59 1012.2
20260906113541 76 11 0.0 0.0 0.00 0.00 0.00 60 1012.2
20260906113021 76 11 0.0 0.0 0.00 0.00 0.00 58 1012.1
20260906112604 76 11 0.0 0.0 0.00 0.00 0.00 57 1012.0
20260906112045 76 11 0.0 0.0 0.00 0.00 0.00 57 1012.0
20260906111534 76 11 0.0 0.0 0.00 0.00 0.00 57 1012.0
20260906111010 76 11 0.0 0.0 0.00 0.00 0.00 57 1012.0
20260906110554 76 11 0.0 0.0 0.00 0.00 0.00 57 1012.0
20260906110033 76 11 0.0 0.0 0.00 0.00 0.00 58 1012.0
20260906105513 76 11 0.0 0.0 0.00 0.00 0.00 59 1012.0
20260906105059 76 11 0.0 0.0 0.00 0.00 0.00 60 1012.1
20260906104536 76 11 0.0 0.0 0.00 0.00 0.00 60 1012.0
20260906104017 77 12 0.0 0.0 0.00 0.00 0.00 61 1012.1
20260906103559 77 12 0.0 0.0 0.00 0.00 0.00 61 1012.0
20260906103057 77 11 0.0 0.0 0.00 0.00 0.00 61 1012.0
20260906102519 77 11 0.0 0.0 0.00 0.00 0.00 61 1011.9
20260906102103 77 11 0.0 0.0 0.00 0.00 0.00 61 1011.9
20260906101542 77 12 0.0 0.0 0.00 0.00 0.00 62 1011.9
20260906101021 77 11 0.0 0.0 0.00 0.00 0.00 64 1011.9
20260906100504 77 11 0.0 0.0 0.00 0.00 0.00 65 1011.8
20260906100045 77 11 0.0 0.0 0.00 0.00 0.00 66 1011.8
20260906095524 77 11 0.0 0.0 0.00 0.00 0.00 66 1011.6
20260906095004 77 11 0.0 0.0 0.00 0.00 0.00 67 1011.7
20260906094548 77 11 0.0 0.0 0.00 0.00 0.00 67 1011.7
20260906094027 77 11 0.0 0.0 0.00 0.00 0.00 68 1011.6
20260906093510 77 11 0.0 0.0 0.00 0.00 0.00 68 1011.5
20260906093057 78 11 0.0 0.0 0.00 0.00 0.00 67 1011.5
20260906092530 78 11 0.0 0.0 0.00 0.00 0.00 67 1011.5
20260906092015 78 12 0.0 0.0 0.00 0.00 0.00 68 1011.5
20260906091554 78 11 0.0 0.0 0.00 0.00 0.00 69 1011.4
20260906091033 78 11 0.0 0.0 0.00 0.00 0.00 68 1011.3
20260906090513 78 11 0.0 0.0 0.00 0.00 0.00 68 1011.4
20260906090115 78 11 0.0 0.0 0.00 0.00 0.00 67 1011.3
20260906085538 78 11 0.0 0.0 0.00 0.00 0.00 67 1011.2
20260906085018 78 11 0.0 0.0 0.00 0.00 0.00 67 1011.3
20260906084610 78 11 0.0 0.0 0.00 0.00 0.00 67 1011.3
20260906084042 78 11 0.0 0.0 0.00 0.00 0.00 66 1011.3
20260906083519 78 11 0.0 0.0 0.00 0.00 0.00 66 1011.2
20260906083111 78 11 0.0 0.0 0.00 0.00 0.00 66 1011.3
20260906082542 78 11 0.0 0.0 0.00 0.00 0.00 65 1011.2
20260906082025 78 12 0.0 0.0 0.00 0.00 0.00 66 1011.3
20260906081501 78 11 0.0 0.0 0.00 0.00 0.00 68 1011.3
20260906081045 78 11 0.0 0.0 0.00 0.00 0.00 68 1011.2
20260906080526 78 11 0.0 0.0 0.00 0.00 0.00 67 1011.2
20260906080007 78 11 0.0 0.0 0.00 0.00 0.00 69 1011.1
20260906075550 78 11 0.0 0.0 0.00 0.00 0.00 69 1011.1
20260906075028 78 11 0.0 0.0 0.00 0.00 0.00 70 1011.1
20260906074509 78 11 0.0 0.0 0.00 0.00 0.00 70 1011.2
20260906074053 78 11 0.0 0.0 0.00 0.00 0.00 70 1011.2
20260906073532 78 11 0.0 0.0 0.00 0.00 0.00 71 1011.1
20260906073011 79 11 0.0 0.0 0.00 0.00 0.00 71 1011.1
20260906072555 79 11 0.0 0.0 0.00 0.00 0.00 71 1011.1
20260906072034 79 11 0.0 0.0 0.00 0.00 0.00 71 1011.1
20260906071514 79 11 0.0 0.0 0.00 0.00 0.00 71 1011.1
20260906071058 79 11 0.0 0.0 0.00 0.00 0.00 71 1011.2
20260906070512 79 11 0.0 1.7 0.00 0.00 0.00 71 1011.2
20260906070051 79 12 0.0 1.7 0.00 0.00 0.00 71 1011.2
20260906065537 79 341 0.0 0.9 0.00 0.00 0.00 71 1011.3
20260906065011 79 341 0.0 0.0 0.00 0.00 0.00 71 1011.2
20260906064554 79 340 0.0 0.0 0.00 0.00 0.00 71 1011.3
20260906064034 79 341 0.0 0.0 0.00 0.00 0.00 71 1011.4
20260906063513 79 341 0.0 0.0 0.00 0.00 0.00 71 1011.4
20260906063057 79 341 0.0 0.0 0.00 0.00 0.00 71 1011.4
20260906062536 79 340 0.0 0.0 0.00 0.00 0.00 71 1011.4
20260906062016 79 340 0.0 0.0 0.00 0.00 0.00 71 1011.4
20260906061601 79 341 0.0 0.0 0.00 0.00 0.00 71 1011.4
20260906061036 80 341 0.0 0.0 0.00 0.00 0.00 71 1011.4
20260906060515 80 340 0.0 0.0 0.00 0.00 0.00 71 1011.5
20260906060059 80 341 0.0 0.0 0.00 0.00 0.00 71 1011.5
20260906055538 80 340 0.0 0.0 0.00 0.00 0.00 71 1011.6
20260906055018 79 341 0.0 0.0 0.00 0.00 0.00 71 1011.6
20260906054601 80 341 0.0 0.0 0.00 0.00 0.00 71 1011.5
20260906054042 80 341 0.0 0.0 0.00 0.00 0.00 71 1011.7
20260906053521 80 341 0.0 0.0 0.00 0.00 0.00 71 1011.8
20260906053003 80 341 0.0 0.0 0.00 0.00 0.00 71 1011.7
20260906052545 80 340 0.0 0.0 0.00 0.00 0.00 71 1011.7
20260906052025 80 341 0.0 0.0 0.00 0.00 0.00 70 1011.7
20260906051506 80 340 0.0 0.0 0.00 0.00 0.00 70 1011.6
20260906051048 80 340 0.0 0.0 0.00 0.00 0.00 70 1011.5
20260906050528 81 340 0.0 0.0 0.00 0.00 0.00 69 1011.5
20260906050007 81 341 0.0 0.0 0.00 0.00 0.00 69 1011.5
20260906045556 81 341 0.0 0.0 0.00 0.00 0.00 68 1011.5
20260906045030 81 341 0.0 0.0 0.00 0.00 0.00 68 1011.6
20260906044510 82 340 0.0 0.0 0.00 0.00 0.00 67 1011.7
20260906044058 82 341 0.0 0.0 0.00 0.00 0.00 67 1011.7
20260906043534 82 340 0.0 0.0 0.00 0.00 0.00 67 1011.7
20260906043013 83 341 0.0 0.0 0.00 0.00 0.00 66 1011.7
20260906042555 83 341 0.0 0.0 0.00 0.00 0.00 66 1011.5
20260906042035 83 341 0.0 0.0 0.00 0.00 0.00 65 1011.5
20260906041515 83 340 0.0 0.0 0.00 0.00 0.00 65 1011.5
20260906041059 83 341 0.0 0.0 0.00 0.00 0.00 65 1011.5
20260906040538 83 341 0.0 0.0 0.00 0.00 0.00 65 1011.4
20260906040030 83 340 0.0 0.0 0.00 0.00 0.00 65 1011.5
20260906035601 83 341 0.0 0.0 0.00 0.00 0.00 65 1011.4
20260906035041 83 340 0.0 0.0 0.00 0.00 0.00 65 1011.3
20260906034526 83 341 0.0 0.0 0.00 0.00 0.00 65 1011.2
20260906034106 83 341 0.0 0.0 0.00 0.00 0.00 65 1011.1
20260906033543 83 340 0.0 0.0 0.00 0.00 0.00 65 1011.1
20260906033024 83 341 0.0 0.0 0.00 0.00 0.00 66 1011.0
20260906032603 84 340 0.0 0.0 0.00 0.00 0.00 66 1011.0
20260906032043 84 340 0.0 0.0 0.00 0.00 0.00 67 1011.0
20260906031534 84 340 0.0 0.0 0.00 0.00 0.00 67 1011.0
20260906031002 84 341 0.0 0.0 0.00 0.00 0.00 67 1010.9
20260906030545 84 340 0.0 0.0 0.00 0.00 0.00 67 1010.9
20260906030024 84 340 0.0 0.0 0.00 0.00 0.00 67 1010.8
20260906025502 84 341 0.0 0.0 0.00 0.00 0.00 67 1010.7
20260906025046 84 340 0.0 0.0 0.00 0.00 0.00 67 1010.7
20260906024525 84 340 0.0 0.0 0.00 0.00 0.00 67 1010.6
20260906024004 85 340 0.0 0.0 0.00 0.00 0.00 67 1010.5
20260906023548 85 340 0.0 0.0 0.00 0.00 0.00 67 1010.5
20260906023027 85 341 0.0 0.0 0.00 0.00 0.00 68 1010.5
20260906022507 85 340 0.0 0.0 0.00 0.00 0.00 67 1010.4
20260906022049 85 341 0.0 0.0 0.00 0.00 0.00 67 1010.4
20260906021528 85 341 0.0 0.0 0.00 0.00 0.00 67 1010.4
20260906021008 86 341 0.0 0.0 0.00 0.00 0.00 67 1010.3
20260906020551 86 341 0.0 0.0 0.00 0.00 0.00 67 1010.2
20260906020029 86 340 0.0 0.0 0.00 0.00 0.00 66 1010.1
20260906015510 86 340 0.0 0.0 0.00 0.00 0.00 66 1010.0
20260906015053 86 340 0.0 0.0 0.00 0.00 0.00 65 1010.0
20260906014532 87 340 0.0 0.0 0.00 0.00 0.00 65 1009.9
20260906014010 87 340 0.0 0.0 0.00 0.00 0.00 64 1009.9
20260906013554 87 340 0.0 0.0 0.00 0.00 0.00 63 1009.9
20260906013054 87 340 0.0 0.0 0.00 0.00 0.00 63 1009.8
20260906012513 87 340 0.0 0.0 0.00 0.00 0.00 62 1009.8
20260906012056 88 341 0.0 0.0 0.00 0.00 0.00 62 1009.9
20260906011545 88 340 0.0 0.0 0.00 0.00 0.00 62 1009.8
20260906011018 88 340 0.0 0.0 0.00 0.00 0.00 62 1009.8
20260906010559 88 340 0.0 0.0 0.00 0.00 0.00 62 1009.7
20260906010039 89 340 0.0 0.0 0.00 0.00 0.00 61 1009.6
20260906005518 89 341 0.0 0.0 0.00 0.00 0.00 61 1009.6
20260906005101 89 340 0.0 0.0 0.00 0.00 0.00 61 1009.6
20260906004540 89 340 0.0 0.0 0.00 0.00 0.00 60 1009.6
20260906004020 90 341 0.0 0.0 0.00 0.00 0.00 60 1009.5
20260906003606 90 340 0.0 0.0 0.00 0.00 0.00 59 1009.6
20260906003044 90 340 0.0 0.0 0.00 0.00 0.00 58 1009.6
20260906002523 91 340 0.0 0.0 0.00 0.00 0.00 57 1009.6
20260906002001 91 341 0.0 0.0 0.00 0.00 0.00 57 1009.7
20260906001541 91 341 0.0 0.0 0.00 0.00 0.00 56 1009.7
20260906001021 91 341 0.0 0.0 0.00 0.00 0.00 56 1009.6
20260906000501 92 341 0.0 0.0 0.00 0.00 0.00 55 1009.6
20260906000051 92 341 0.0 0.0 0.00 0.00 0.00 55 1009.6
20260905235524 92 341 0.0 0.0 0.00 0.00 0.00 54 1009.5
20260905235004 92 340 0.0 0.0 0.00 0.00 0.00 53 1009.6
20260905234554 92 340 0.0 0.0 0.00 0.00 0.00 52 1009.5
20260905234026 93 340 0.0 0.0 0.00 0.00 0.00 52 1009.5
20260905233507 93 341 0.0 0.9 0.00 0.00 0.00 52 1009.5
20260905233049 93 340 0.0 0.9 0.00 0.00 0.00 52 1009.5
20260905232528 93 341 0.0 0.0 0.00 0.00 0.00 52 1009.5
20260905232007 93 341 0.0 0.0 0.00 0.00 0.00 51 1009.4
20260905231554 94 341 0.0 0.9 0.00 0.00 0.00 51 1009.4
20260905231030 94 340 0.0 0.9 0.00 0.00 0.00 50 1009.4
20260905230508 94 341 0.0 0.9 0.00 0.00 0.00 50 1009.4
20260905225532 94 341 0.0 0.9 0.00 0.00 0.00 51 1009.4
20260905225012 94 341 0.0 2.6 0.00 0.00 0.00 50 1009.4
20260905224556 94 341 0.0 2.6 0.00 0.00 0.00 50 1009.3
20260905224035 94 341 0.0 2.6 0.00 0.00 0.00 50 1009.4
20260905223514 94 327 0.0 2.6 0.00 0.00 0.00 50 1009.4
20260905223058 94 327 0.0 2.6 0.00 0.00 0.00 50 1009.4
20260905222538 94 327 0.0 2.6 0.00 0.00 0.00 49 1009.5
20260905222019 94 327 0.0 3.5 0.00 0.00 0.00 50 1009.4
20260905221600 95 327 0.0 3.5 0.00 0.00 0.00 49 1009.5
20260905221041 95 348 0.0 4.3 0.00 0.00 0.00 49 1009.6
20260905220518 95 348 0.0 4.3 0.00 0.00 0.00 50 1009.7
20260905220115 95 340 0.0 5.2 0.00 0.00 0.00 49 1009.7
20260905215542 95 340 0.9 5.2 0.00 0.00 0.00 49 1009.8
20260905215020 95 359 0.0 1.7 0.00 0.00 0.00 49 1009.9
20260905214501 95 359 0.0 1.7 0.00 0.00 0.00 50 1010.0
20260905214045 95 359 0.0 5.2 0.00 0.00 0.00 50 1010.0
20260905213524 95 359 2.6 5.2 0.00 0.00 0.00 49 1010.0
20260905213002 95 353 0.9 3.5 0.00 0.00 0.00 49 1010.1
20260905212546 96 13 0.0 2.6 0.00 0.00 0.00 50 1010.1
20260905212025 96 13 0.0 6.1 0.00 0.00 0.00 49 1010.2
20260905211505 95 15 0.0 6.1 0.00 0.00 0.00 50 1010.2
20260905211049 95 357 0.9 5.2 0.00 0.00 0.00 49 1010.2
20260905210529 95 349 2.6 5.2 0.00 0.00 0.00 48 1010.3
20260905210007 95 6 0.9 5.2 0.00 0.00 0.00 47 1010.3
20260905205553 95 6 1.7 5.2 0.00 0.00 0.00 49 1010.3
20260905205030 95 9 1.7 5.2 0.00 0.00 0.00 49 1010.4
20260905204509 95 351 1.7 3.5 0.00 0.00 0.00 46 1010.3
20260905204053 95 342 0.0 3.5 0.00 0.00 0.00 47 1010.4
20260905203532 94 317 0.0 2.6 0.00 0.00 0.00 47 1010.6
20260905203013 94 317 0.0 1.7 0.00 0.00 0.00 47 1010.7
20260905202555 95 317 0.0 1.7 0.00 0.00 0.00 47 1010.7
20260905202035 95 316 0.9 1.7 0.00 0.00 0.00 46 1010.8
20260905201516 95 316 0.0 0.9 0.00 0.00 0.00 47 1010.8
20260905201059 95 316 0.0 1.7 0.00 0.00 0.00 47 1010.8
20260905200539 95 316 0.0 1.7 0.00 0.00 0.00 44 1010.9
20260905200023 96 316 0.0 0.9 0.00 0.00 0.00 45 1011.0
20260905195602 96 316 0.0 0.9 0.00 0.00 0.00 44 1011.0
20260905195040 96 316 0.0 1.7 0.00 0.00 0.00 43 1011.0
20260905194520 96 317 0.0 0.0 0.00 0.00 0.00 45 1011.1
20260905194105 96 317 0.0 0.0 0.00 0.00 0.00 44 1011.1
20260905193543 96 317 0.0 0.9 0.00 0.00 0.00 45 1011.2
20260905193023 97 317 0.0 0.9 0.00 0.00 0.00 44 1011.2
20260905192504 97 317 0.0 0.9 0.00 0.00 0.00 45 1011.3
20260905192046 96 317 0.0 0.9 0.00 0.00 0.00 46 1011.4
20260905191530 96 317 0.0 0.0 0.00 0.00 0.00 46 1011.3
20260905191005 96 317 0.0 0.0 0.00 0.00 0.00 46 1011.4
20260905190549 96 317 0.0 0.0 0.00 0.00 0.00 44 1011.4
20260905190029 95 317 0.0 0.9 0.00 0.00 0.00 47 1011.5
20260905185508 95 317 0.0 0.9 0.00 0.00 0.00 45 1011.7
20260905185051 95 317 0.0 0.9 0.00 0.00 0.00 46 1011.7
20260905184531 94 317 0.0 0.0 0.00 0.00 0.00 47 1011.7
20260905184012 95 317 0.0 0.0 0.00 0.00 0.00 47 1011.8
20260905183556 95 317 0.0 0.9 0.00 0.00 0.00 45 1011.8
20260905183034 96 317 0.0 0.9 0.00 0.00 0.00 44 1011.9
20260905182513 96 317 0.0 0.9 0.00 0.00 0.00 43 1011.9
20260905182057 96 317 0.0 0.9 0.00 0.00 0.00 43 1012.0
20260905181536 96 317 0.0 0.9 0.00 0.00 0.00 44 1012.1
20260905181015 96 317 0.0 0.9 0.00 0.00 0.00 45 1012.2
20260905180559 96 317 0.0 2.6 0.00 0.00 0.00 46 1012.2
20260905180040 95 317 0.0 2.6 0.00 0.00 0.00 44 1012.3
20260905175518 95 317 0.0 0.0 0.00 0.00 0.00 47 1012.3
20260905175103 95 317 0.0 0.0 0.00 0.00 0.00 48 1012.3
20260905174543 94 317 0.0 0.9 0.00 0.00 0.00 49 1012.3
20260905174021 94 317 0.0 0.9 0.00 0.00 0.00 51 1012.4
20260905173500 94 317 0.0 0.9 0.00 0.00 0.00 49 1012.5
20260905173043 94 317 0.0 0.0 0.00 0.00 0.00 48 1012.6
20260905172524 94 317 0.0 0.0 0.00 0.00 0.00 49 1012.7
20260905172003 93 317 0.0 0.0 0.00 0.00 0.00 49 1012.8
20260905171557 93 317 0.0 0.0 0.00 0.00 0.00 52 1012.9
20260905171027 93 317 0.0 0.0 0.00 0.00 0.00 51 1012.9
20260905170506 93 317 0.0 0.0 0.00 0.00 0.00 52 1012.9
20260905170101 92 317 0.0 0.0 0.00 0.00 0.00 52 1012.9
20260905165534 92 317 0.0 0.0 0.00 0.00 0.00 51 1013.0
20260905165012 92 317 0.0 0.0 0.00 0.00 0.00 52 1013.1
20260905164552 92 317 0.0 1.7 0.00 0.00 0.00 51 1013.0
20260905164032 92 317 0.0 1.7 0.00 0.00 0.00 53 1013.0
20260905163513 92 317 0.0 0.0 0.00 0.00 0.00 54 1013.1
20260905163056 91 317 0.0 0.0 0.00 0.00 0.00 54 1013.0
20260905162533 91 317 0.0 0.0 0.00 0.00 0.00 55 1013.0
20260905162013 91 317 0.0 0.0 0.00 0.00 0.00 55 1013.0
20260905161557 91 317 0.0 0.0 0.00 0.00 0.00 54 1013.0
20260905161035 91 317 0.0 0.0 0.00 0.00 0.00 55 1013.1
20260905160515 90 317 0.0 0.0 0.00 0.00 0.00 56 1013.0
20260905160108 90 317 0.0 0.0 0.00 0.00 0.00 57 1013.0
20260905155538 90 317 0.0 0.0 0.00 0.00 0.00 59 1013.0
20260905155018 89 317 0.0 0.0 0.00 0.00 0.00 59 1012.9
20260905154641 89 92 0.0 0.0 0.00 0.00 0.00 60 1012.9
20260905154044 89 92 0.0 0.0 0.00 0.00 0.00 59 1012.9
20260905153519 89 152 0.0 0.0 0.00 0.00 0.00 61 1012.9
20260905153104 88 152 0.0 0.0 0.00 0.00 0.00 60 1012.9
20260905152542 88 152 0.0 0.0 0.00 0.00 0.00 62 1012.9
20260905152021 88 152 0.0 0.0 0.00 0.00 0.00 64 1012.9
20260905151501 87 152 0.0 0.0 0.00 0.00 0.00 65 1012.9
20260905151043 87 152 0.0 0.0 0.00 0.00 0.00 65 1012.9
20260905150525 86 152 0.0 0.0 0.00 0.00 0.00 67 1012.8
20260905150005 86 152 0.0 0.0 0.00 0.00 0.00 66 1012.8
20260905145549 85 152 0.0 0.0 0.00 0.00 0.00 68 1012.8
20260905145028 85 152 0.0 0.0 0.00 0.00 0.00 68 1012.8
20260905144507 84 152 0.0 0.0 0.00 0.00 0.00 69 1012.7
20260905144051 84 152 0.0 0.0 0.00 0.00 0.00 70 1012.6
20260905143532 83 152 0.0 0.0 0.00 0.00 0.00 70 1012.7
20260905143010 82 152 0.0 0.0 0.00 0.00 0.00 71 1012.6
20260905142555 82 152 0.0 0.0 0.00 0.00 0.00 71 1012.6
20260905142034 81 152 0.0 0.0 0.00 0.00 0.00 71 1012.6
20260905141514 81 152 0.0 0.0 0.00 0.00 0.00 70 1012.6
20260905141057 80 152 0.0 0.0 0.00 0.00 0.00 69 1012.7
20260905140536 80 152 0.0 0.0 0.00 0.00 0.00 66 1012.7
20260905140016 79 152 0.0 0.0 0.00 0.00 0.00 63 1012.6
20260905135559 79 152 0.0 0.0 0.00 0.00 0.00 62 1012.6
20260905135038 79 152 0.0 0.0 0.00 0.00 0.00 61 1012.6
20260905134522 78 152 0.0 0.0 0.00 0.00 0.00 62 1012.5
20260905134103 78 152 0.0 0.0 0.00 0.00 0.00 59 1012.4